Location: Peterborough
(44.3091°N, 78.3197°W)
Time: 06:10:34
(UTC-04:00)

Vanguard 3 - Pass Details

Date: 26 February 2024
Orbit: 510 x 3234 km, 33.3° (Epoch: 24 April)

Event Time Altitude Azimuth Distance (km) Brightness Sun altitude
Rises 19:02:37 0° 215° (SW) 6,406 12.2 -12.5°
Reaches altitude 10° 19:07:01 10° 208° (SSW) 5,674 11.8 -13.3°
Maximum altitude 19:22:59 38° 149° (SSE) 4,278 10.5 -16.2°
Enters shadow 19:34:10 22° 101° (ESE) 5,066 10.5 -18.1°
